Change the Weather History Date:

Wednesday, July 18, 2012

  Actual Average (KTUL) Record (KTUL)
Temperature  
Mean Temperature 86 °F 83 °F  
Max Temperature 102 °F 94 °F 113 °F (1936)
Min Temperature 71 °F 73 °F 59 °F (2014)
Cooling Degree Days 22 18  
Month to date cooling degree days 314  
Year to date cooling degree days 927  
Since 1 June cooling degree days 693  
Growing Degree Days 36 (Base 50)    
Moisture  
Dew Point 63 °F    
Average Humidity 48    
Maximum Humidity 83    
Minimum Humidity 24    
Precipitation  
Precipitation 0.00 in 0.11 in 2.72 in (1924)
Month to date precipitation 2.09  
Year to date precipitation 23.31  
Sea Level Pressure  
Sea Level Pressure 29.97 in    
Wind  
Wind Speed 8 mph (SSW)    
Max Wind Speed 17 mph    
Max Gust Speed 22 mph    
Visibility 10 miles    
Events      
T = Trace of Precipitation, MM = Missing Value Source: NWS Daily Summary

Daily Weather History Graph

Daily Weather History Graph

Search for Another Location

Airport or City:

Trip Planner

Search our weather history database for the weather conditions in past years. The results will help you decide how hot, cold, wet, or windy it might be!

Date:

Astronomy

Jul. 18, 2012 Rise Set
Actual Time 6:18 AM CDT 8:37 PM CDT
Civil Twilight 5:49 AM CDT 9:06 PM CDT
Nautical Twilight 5:12 AM CDT 9:42 PM CDT
Astronomical Twilight 4:33 AM CDT 10:22 PM CDT
Moon 5:52 AM CDT (7/18) 8:10 PM CDT (7/18)
Length of Visible Light 15h 17m
Length of Day
14h 19m
Waning Crescent, 0% of the Moon is Illuminated
Jul 18
Waning Crescent
Jul 18
New
Jul 26
First Quarter
Aug 1
Full
Aug 9
Last Quarter

Hourly Weather History & Observations

Time (CDT) Temp. Heat Index Dew Point Humidity Pressure Visibility Wind Dir Wind Speed Gust Speed Precip Events Conditions
12:15 AM 80.6 °F 82.3 °F 64.4 °F 58% 29.95 in 10.0 mi South 6.9 mph - N/A   Clear
12:35 AM 78.8 °F - 64.4 °F 61% 29.95 in 10.0 mi SSW 5.8 mph - N/A   Clear
12:55 AM 78.8 °F - 64.4 °F 61% 29.95 in 10.0 mi South 5.8 mph - N/A   Clear
1:15 AM 77.0 °F - 64.4 °F 65% 29.95 in 10.0 mi South 5.8 mph - N/A   Clear
1:35 AM 78.8 °F - 64.4 °F 61% 29.95 in 10.0 mi South 5.8 mph - N/A   Clear
1:55 AM 78.8 °F - 64.4 °F 61% 29.95 in 10.0 mi South 5.8 mph - N/A   Clear
2:15 AM 77.0 °F - 64.4 °F 65% 29.95 in 10.0 mi South 5.8 mph - N/A   Clear
2:35 AM 77.0 °F - 64.4 °F 65% 29.95 in 10.0 mi South 6.9 mph - N/A   Clear
3:15 AM 78.8 °F - 64.4 °F 61% 29.95 in 10.0 mi South 8.1 mph - N/A   Clear
3:35 AM 77.0 °F - 64.4 °F 65% 29.95 in 10.0 mi South 5.8 mph - N/A   Clear
3:55 AM 77.0 °F - 64.4 °F 65% 29.95 in 10.0 mi South 5.8 mph - N/A   Clear
4:15 AM 77.0 °F - 66.2 °F 69% 29.96 in 10.0 mi South 5.8 mph - N/A   Clear
4:35 AM 75.2 °F - 66.2 °F 73% 29.97 in 10.0 mi SE 5.8 mph - N/A   Clear
4:55 AM 73.4 °F - 66.2 °F 78% 29.97 in 10.0 mi SE 5.8 mph - N/A   Clear
5:15 AM 71.6 °F - 66.2 °F 83% 29.98 in 10.0 mi SE 5.8 mph - N/A   Clear
5:35 AM 73.4 °F - 66.2 °F 78% 29.98 in 10.0 mi SSE 5.8 mph - N/A   Clear
5:55 AM 73.4 °F - 68.0 °F 83% 29.98 in 10.0 mi SSE 6.9 mph - N/A   Clear
6:15 AM 73.4 °F - 68.0 °F 83% 29.98 in 10.0 mi SSE 5.8 mph - N/A   Clear
6:35 AM 73.4 °F - 68.0 °F 83% 29.99 in 10.0 mi SSE 4.6 mph - N/A   Clear
6:55 AM 73.4 °F - 68.0 °F 83% 30.00 in 10.0 mi SSE 3.5 mph - N/A   Clear
7:15 AM 75.2 °F - 68.0 °F 78% 30.00 in 10.0 mi South 4.6 mph - N/A   Clear
7:35 AM 77.0 °F - 68.0 °F 74% 30.01 in 10.0 mi SSE 3.5 mph - N/A   Clear
7:55 AM 78.8 °F - 68.0 °F 69% 30.01 in 10.0 mi South 6.9 mph - N/A   Clear
8:15 AM 80.6 °F 83.2 °F 68.0 °F 65% 30.01 in 10.0 mi SSW 9.2 mph - N/A   Clear
8:35 AM 82.4 °F 85.4 °F 68.0 °F 62% 30.02 in 10.0 mi SSW 10.4 mph - N/A   Clear
8:55 AM 82.4 °F 84.6 °F 66.2 °F 58% 30.02 in 10.0 mi SSW 11.5 mph - N/A   Clear
9:15 AM 86.0 °F 88.2 °F 66.2 °F 51% 30.03 in 10.0 mi SSW 10.4 mph - N/A   Clear
9:35 AM 86.0 °F 88.2 °F 66.2 °F 51% 30.03 in 10.0 mi SW 10.4 mph - N/A   Clear
9:55 AM 87.8 °F 90.4 °F 66.2 °F 49% 30.03 in 10.0 mi SW 11.5 mph - N/A   Clear
10:15 AM 89.6 °F 91.1 °F 64.4 °F 43% 30.03 in 10.0 mi SW 10.4 mph - N/A   Clear
10:35 AM 89.6 °F 91.1 °F 64.4 °F 43% 30.03 in 10.0 mi SSW 11.5 mph - N/A   Clear
10:55 AM 91.4 °F 93.2 °F 64.4 °F 41% 30.03 in 10.0 mi SW 9.2 mph 17.3 mph N/A   Clear
11:15 AM 93.2 °F 94.1 °F 62.6 °F 36% 30.03 in 10.0 mi SSW 15.0 mph 19.6 mph N/A   Clear
11:35 AM 95.0 °F 95.2 °F 60.8 °F 32% 30.02 in 10.0 mi SW 13.8 mph 18.4 mph N/A   Clear
11:55 AM 95.0 °F 95.2 °F 60.8 °F 32% 30.02 in 10.0 mi WSW 15.0 mph 18.4 mph N/A   Clear
12:15 PM 95.0 °F 95.2 °F 60.8 °F 32% 30.01 in 10.0 mi WSW 10.4 mph 17.3 mph N/A   Clear
12:35 PM 96.8 °F 97.1 °F 60.8 °F 30% 30.01 in 10.0 mi WSW 15.0 mph 20.7 mph N/A   Clear
12:55 PM 96.8 °F 97.1 °F 60.8 °F 30% 30.01 in 10.0 mi SW 9.2 mph 18.4 mph N/A   Clear
1:15 PM 98.6 °F 99.4 °F 60.8 °F 29% 30.00 in 10.0 mi SSW 12.7 mph 19.6 mph N/A   Clear
1:35 PM 96.8 °F 97.1 °F 60.8 °F 30% 29.99 in 10.0 mi WSW 8.1 mph 17.3 mph N/A   Clear
1:55 PM 98.6 °F 99.4 °F 60.8 °F 29% 29.99 in 10.0 mi SSW 11.5 mph 16.1 mph N/A   Clear
2:15 PM 98.6 °F 99.4 °F 60.8 °F 29% 29.98 in 10.0 mi SSW 13.8 mph 19.6 mph N/A   Clear
2:35 PM 98.6 °F 99.4 °F 60.8 °F 29% 29.98 in 10.0 mi SSW 15.0 mph 21.9 mph N/A   Clear
2:55 PM 100.4 °F 101.3 °F 60.8 °F 27% 29.97 in 10.0 mi South 9.2 mph 21.9 mph N/A   Clear
3:15 PM 100.4 °F 101.3 °F 60.8 °F 27% 29.97 in 10.0 mi SSW 17.3 mph 20.7 mph N/A   Clear
3:35 PM 98.6 °F 99.4 °F 60.8 °F 29% 29.96 in 10.0 mi South 9.2 mph - N/A   Clear
3:55 PM 100.4 °F 101.3 °F 60.8 °F 27% 29.95 in 10.0 mi SW 6.9 mph 17.3 mph N/A   Clear
4:15 PM 100.4 °F 101.3 °F 60.8 °F 27% 29.95 in 10.0 mi SSW 11.5 mph 16.1 mph N/A   Clear
4:35 PM 102.2 °F 103.6 °F 60.8 °F 26% 29.94 in 10.0 mi WSW 8.1 mph - N/A   Clear
4:55 PM 100.4 °F 101.3 °F 60.8 °F 27% 29.93 in 10.0 mi SSW 10.4 mph - N/A   Clear
5:15 PM 102.2 °F 102.4 °F 59.0 °F 24% 29.93 in 10.0 mi SW 10.4 mph 16.1 mph N/A   Clear
5:55 PM 100.4 °F 101.3 °F 60.8 °F 27% 29.91 in 10.0 mi SSW 9.2 mph - N/A   Clear
6:15 PM 100.4 °F 101.3 °F 60.8 °F 27% 29.91 in 10.0 mi SSW 11.5 mph - N/A   Clear
6:35 PM 100.4 °F 101.3 °F 60.8 °F 27% 29.90 in 10.0 mi South 10.4 mph 16.1 mph N/A   Clear
7:15 PM 98.6 °F 98.5 °F 59.0 °F 27% 29.89 in 10.0 mi WSW 5.8 mph - N/A   Clear
7:35 PM 98.6 °F 99.4 °F 60.8 °F 29% 29.89 in 10.0 mi SSW 9.2 mph - N/A   Clear
7:55 PM 96.8 °F 97.1 °F 60.8 °F 30% 29.90 in 10.0 mi South 8.1 mph - N/A   Clear
8:15 PM 95.0 °F 95.2 °F 60.8 °F 32% 29.90 in 10.0 mi South 10.4 mph - N/A   Clear
8:35 PM 93.2 °F 93.3 °F 60.8 °F 34% 29.91 in 10.0 mi South 6.9 mph - N/A   Clear
8:55 PM 89.6 °F 89.5 °F 60.8 °F 38% 29.91 in 10.0 mi South 6.9 mph - N/A   Clear
9:15 PM 89.6 °F 89.5 °F 60.8 °F 38% 29.92 in 10.0 mi South 5.8 mph - N/A   Clear
9:35 PM 87.8 °F 87.6 °F 60.8 °F 40% 29.93 in 10.0 mi SSE 5.8 mph - N/A   Clear
10:15 PM 87.8 °F 87.6 °F 60.8 °F 40% 29.96 in 10.0 mi South 8.1 mph - N/A   Clear
10:35 PM 87.8 °F 88.5 °F 62.6 °F 43% 29.97 in 10.0 mi South 8.1 mph - N/A   Clear
10:55 PM 86.0 °F 86.6 °F 62.6 °F 45% 29.97 in 10.0 mi South 8.1 mph - N/A   Clear
11:15 PM 86.0 °F 86.6 °F 62.6 °F 45% 29.97 in 10.0 mi South 8.1 mph - N/A   Clear
11:55 PM 86.0 °F 86.6 °F 62.6 °F 45% 29.98 in 10.0 mi SSW 9.2 mph - N/A   Clear